CDT,Max TemperatureF,Mean TemperatureF,Min TemperatureF,Max Dew PointF,MeanDew PointF,Min DewpointF,Max Humidity, Mean Humidity, Min Humidity, Max Sea Level PressureIn, Mean Sea Level PressureIn, Min Sea Level PressureIn, Max VisibilityMiles, Mean VisibilityMiles, Min VisibilityMiles, Max Wind SpeedMPH, Mean Wind SpeedMPH, Max Gust SpeedMPH,PrecipitationIn, CloudCover, Events, WindDirDegrees
2013-6-1,60,56,53,57,52,46,100,86,72,30.03,29.76,29.53,10,10,7,25,11,33,0.00,8,,1
2013-6-2,66,56,46,48,42,37,93,59,35,30.13,30.07,30.02,10,10,10,12,7,,0.00,3,,11
2013-6-3,69,58,46,48,43,39,82,56,35,30.05,29.99,29.89,10,10,2,24,7,29,0.00,2,Rain,153
2013-6-4,62,58,55,61,56,45,100,89,55,29.99,29.96,29.91,10,10,7,18,13,24,0.26,7,Rain-Thunderstorm,171
2013-6-5,64,58,51,57,52,48,100,77,59,30.01,29.99,29.96,10,10,7,13,7,16,0.00,6,Thunderstorm,322
2013-6-6,60,56,51,52,51,48,100,84,67,30.07,30.03,30.01,10,10,10,12,7,,0.00,8,,77
2013-6-7,66,56,46,52,48,46,100,72,49,30.07,30.00,29.91,10,10,4,10,2,,0.00,2,,141
2013-6-8,64,60,55,57,53,46,100,79,59,29.91,29.86,29.83,10,10,7,20,10,26,0.10,4,Rain,165
2013-6-9,62,60,57,61,58,57,100,98,88,29.86,29.78,29.71,10,7,2,24,15,30,1.13,8,Rain,112
2013-6-10,75,65,55,61,58,55,100,84,53,29.90,29.85,29.80,10,6,0,9,2,,0.00,4,Fog,180
2013-6-11,77,67,57,66,60,54,100,81,47,29.94,29.87,29.79,10,8,3,16,6,23,0.01,1,Rain-Thunderstorm,82
2013-6-12,69,63,57,63,58,54,100,82,60,30.04,29.90,29.79,10,10,4,23,9,32,1.42,4,Rain-Thunderstorm,43
2013-6-13,75,64,53,57,54,52,94,68,44,30.15,30.09,30.04,10,10,10,9,6,9,0.00,0,,68
2013-6-14,82,72,62,64,61,57,83,70,51,30.07,29.92,29.81,10,10,10,26,10,33,0.00,3,Thunderstorm,176
2013-6-15,80,72,64,64,56,46,100,62,30,29.95,29.90,29.83,10,10,7,20,8,25,0.00,1,,343
2013-6-16,86,72,57,55,50,45,77,47,25,29.96,29.92,29.87,10,10,10,17,7,26,0.00,0,Thunderstorm,303
2013-6-17,80,70,60,59,54,52,77,56,37,30.01,29.97,29.93,10,10,10,20,7,25,0.00,2,,339
2013-6-18,75,66,57,63,58,55,100,76,50,30.11,30.05,30.00,10,10,2,17,7,21,0.51,2,Rain-Thunderstorm,127
2013-6-19,87,74,60,61,58,52,94,61,29,30.02,29.95,29.88,10,10,10,13,7,17,0.00,2,,183
2013-6-20,87,79,71,68,65,61,78,63,46,29.96,29.88,29.77,10,10,7,18,10,25,0.00,3,Thunderstorm,189
2013-6-21,80,72,64,70,65,63,100,85,65,30.03,29.88,29.73,10,8,3,26,14,44,1.51,3,Rain-Thunderstorm,142
2013-6-22,78,71,64,70,66,63,100,85,65,29.97,29.89,29.79,10,10,7,18,8,26,0.20,3,Rain-Thunderstorm,149
2013-6-23,80,72,64,72,64,59,100,79,51,29.89,29.79,29.65,10,10,5,16,9,23,0.95,3,Rain-Thunderstorm,276
2013-6-24,77,68,60,72,66,61,100,86,73,29.91,29.84,29.76,10,10,4,15,6,18,0.00,0,Rain-Thunderstorm,179
2013-6-25,86,76,66,73,70,66,100,85,66,29.80,29.75,29.70,10,10,5,14,9,20,0.00,1,,174
2013-6-26,86,76,66,72,66,57,100,70,37,,,,10,10,7,18,7,25,0.00,1,Rain-Thunderstorm,327
2013-6-27,84,76,68,66,60,52,94,58,33,,,,10,10,10,21,8,26,0.00,0,,336
2013-6-28,80,73,66,61,57,54,73,57,39,29.91,29.89,29.87,10,10,10,29,13,39,0.00,1,,352
2013-6-29,80,71,62,61,56,50,94,64,36,30.03,29.94,29.86,10,10,10,20,12,26,0.00,2,,38
2013-6-30,80,68,57,55,52,46,94,57,32,30.17,30.12,30.03,10,10,10,13,4,21,0.00,0,,66